STARLINK-32785, 62531

Orbit data source: Space-Track

STARLINK-32785, 62531 is a payload satellite owned by SpaceX/Seattle (US) in LEO that was launched on Wed, 08 Jan 2025 UTC via an FALCON 9 launch vehicle from the Air Force Eastern Test Range (AFETR). Payload-class satellites include a variety of spacecraft equipped with specific instruments for various scientific and technological missions. These include communications satellites like Starlink; space stations such as the ISS; scientific satellites like the Hubble; Earth observation satellites from companies like Planet Labs, Umbra, and HawkEye 360; GPS; miniature CubeSats for education and research; and military/defense satellites.

Loading next visibility...
Identifier
62531, 2025-004W
Orbit
LEO
Country
Flag of USUS
Related business
Manufacturer
SpaceX/Seattle
Mission
Operational Commercial Communications
Bus & Motor
STARLINK V2M, Unknown motor
Mass
730 kg wet, ~700 kg dry
Launch date (UTC)
2025-01-08 (2 years ago)
Launch vehicle
FALCON 9
Launch site
Air Force Eastern Test Range (AFETR)
Object type
Payload
Rocket body
Debris
Shape & HBR
Box + 2 Pan, 17.7 m
Radar Cross Section
33.884 m², Large (>1 m²)

Expand to show TLE details & history
Last TLE update: 1 day ago

TLE from 1 day ago
0 STARLINK-32785
1 62531U 25004W   26254.04382955  .00013828  00000-0  51083-3 0  9995
2 62531  42.9973 253.3024 0000724 264.8716  95.2053 15.27595557 94805
Epoch: 2026-09-11T01:03Z
TLE epoch observation values (Epoch: 2026-09-11T01:03:06.873Z)
Latitude
-0°
Longitude
-112.54908°
Altitude
482.823 km
Speed
7.626 km/s
True Right ascension
16h 53m 12s
True Declination
0° 00' 00"
Sunlit
Object was in daylight at epoch
Visualization orbit readout
Latitude
Unknown
Longitude
Unknown
Altitude
Unknown
Speed
Unknown
Apparent Right ascension
Unknown
Apparent Declination
Unknown
Sunlit
N/A
Visualization observer readout
Local Sidereal Time
21:34:50
Azimuth
Unknown
Elevation
Unknown
Doppler factor
Unknown
Orbital elements
Apogee altitude
485.445 km
Perigee altitude
484.451 km
Semi-major axis
6,863.085 km
Eccentricity
0.00007
Inclination
42.9973°
RAAN
253.3024°
Arg. of periapsis
264.8716°
True anomaly
95.21356°
Mean anomaly
95.2053°
Eccentric anomaly
95.20943°
Mean motion
3.81737 °/min
Orbital period
94.31 mins
BSTAR
0.00051083
Loading maneuver chart data...
Computing Atmospheric mass density...
Loading historical data...
Loading historical data...
Loading historical data...
Loading historical data...
Loading historical data...
Loading historical data...
Loading historical data...

Documentation

Showing up to 5 results
|